Year,Month,Day,Hour,Minute,Value (Times are PST for temperature in C)
2011,08,01,00,00,13.00
2011,08,01,00,01,13.00
2011,08,01,00,02,13.00
2011,08,01,00,03,13.10
2011,08,01,00,04,13.10
2011,08,01,00,05,13.20
2011,08,01,00,06,13.30
2011,08,01,00,07,13.30
2011,08,01,00,08,13.40
2011,08,01,00,09,13.50
2011,08,01,00,10,13.50
2011,08,01,00,11,13.50
2011,08,01,00,12,13.50
2011,08,01,00,13,13.50
2011,08,01,00,14,13.50
2011,08,01,00,15,13.40
2011,08,01,00,16,13.40
2011,08,01,00,17,13.40
2011,08,01,00,18,13.30
2011,08,01,00,19,13.30
2011,08,01,00,20,13.30
2011,08,01,00,21,13.20
2011,08,01,00,22,13.20
2011,08,01,00,23,13.20
2011,08,01,00,24,13.10
2011,08,01,00,25,13.10
2011,08,01,00,26,13.00
2011,08,01,00,27,13.00
2011,08,01,00,28,13.00
2011,08,01,00,29,12.90
2011,08,01,00,30,12.90
2011,08,01,00,31,12.90
2011,08,01,00,32,12.90
2011,08,01,00,33,12.90
2011,08,01,00,34,12.90
2011,08,01,00,35,12.90
2011,08,01,00,36,12.90
2011,08,01,00,37,12.80
2011,08,01,00,38,12.80
2011,08,01,00,39,12.80
2011,08,01,00,40,12.80
2011,08,01,00,41,12.80
2011,08,01,00,42,12.80
2011,08,01,00,43,12.80
2011,08,01,00,44,12.80
2011,08,01,00,45,12.80
2011,08,01,00,46,12.80
2011,08,01,00,47,12.80
2011,08,01,00,48,12.80
2011,08,01,00,49,12.70
2011,08,01,00,50,12.70
2011,08,01,00,51,12.70
2011,08,01,00,52,12.70
2011,08,01,00,53,12.70
2011,08,01,00,54,12.60
2011,08,01,00,55,12.60
2011,08,01,00,56,12.60
2011,08,01,00,57,12.50
2011,08,01,00,58,12.50
2011,08,01,00,59,12.50
2011,08,01,01,00,12.50
2011,08,01,01,01,12.50
2011,08,01,01,02,12.40
2011,08,01,01,03,12.40
2011,08,01,01,04,12.40
2011,08,01,01,05,12.40
2011,08,01,01,06,12.40
2011,08,01,01,07,12.40
2011,08,01,01,08,12.40
2011,08,01,01,09,12.40
2011,08,01,01,10,12.30
2011,08,01,01,11,12.30
2011,08,01,01,12,12.30
2011,08,01,01,13,12.30
2011,08,01,01,14,12.30
2011,08,01,01,15,12.30
2011,08,01,01,16,12.30
2011,08,01,01,17,12.20
2011,08,01,01,18,12.20
2011,08,01,01,19,12.20
2011,08,01,01,20,12.20
2011,08,01,01,21,12.20
2011,08,01,01,22,12.20
2011,08,01,01,23,12.20
2011,08,01,01,24,12.20
2011,08,01,01,25,12.20
2011,08,01,01,26,12.20
2011,08,01,01,27,12.10
2011,08,01,01,28,12.10
2011,08,01,01,29,12.10
2011,08,01,01,30,12.10
2011,08,01,01,31,12.00
2011,08,01,01,32,12.00
2011,08,01,01,33,12.00
2011,08,01,01,34,12.00
2011,08,01,01,35,12.00
2011,08,01,01,36,12.00
2011,08,01,01,37,12.10
2011,08,01,01,38,12.10
2011,08,01,01,39,12.10
2011,08,01,01,40,12.10
2011,08,01,01,41,12.10
2011,08,01,01,42,12.10
2011,08,01,01,43,12.10
2011,08,01,01,44,12.20
2011,08,01,01,45,12.20
2011,08,01,01,46,12.20
2011,08,01,01,47,12.30
2011,08,01,01,48,12.30
2011,08,01,01,49,12.40
2011,08,01,01,50,12.40
2011,08,01,01,51,12.50
2011,08,01,01,52,12.50
2011,08,01,01,53,12.60
2011,08,01,01,54,12.60
2011,08,01,01,55,12.60
2011,08,01,01,56,12.70
2011,08,01,01,57,12.70
2011,08,01,01,58,12.70
2011,08,01,01,59,12.70
2011,08,01,02,00,12.70
2011,08,01,02,01,12.80
2011,08,01,02,02,12.80
2011,08,01,02,03,12.80
2011,08,01,02,04,12.80
2011,08,01,02,05,12.80
2011,08,01,02,06,12.80
2011,08,01,02,07,12.80
2011,08,01,02,08,12.80
2011,08,01,02,09,12.80
2011,08,01,02,10,12.80
2011,08,01,02,11,12.80
2011,08,01,02,12,12.80
2011,08,01,02,13,12.80
2011,08,01,02,14,12.80
2011,08,01,02,15,12.80
2011,08,01,02,16,12.80
2011,08,01,02,17,12.80
2011,08,01,02,18,12.80
2011,08,01,02,19,12.80
2011,08,01,02,20,12.70
2011,08,01,02,21,12.70
2011,08,01,02,22,12.70
2011,08,01,02,23,12.70
2011,08,01,02,24,12.70
2011,08,01,02,25,12.70
2011,08,01,02,26,12.70
2011,08,01,02,27,12.70
2011,08,01,02,28,12.70
2011,08,01,02,29,12.60
2011,08,01,02,30,12.60
2011,08,01,02,31,12.60
2011,08,01,02,32,12.60
2011,08,01,02,33,12.60
2011,08,01,02,34,12.60
2011,08,01,02,35,12.60
2011,08,01,02,36,12.60
2011,08,01,02,37,12.60
2011,08,01,02,38,12.50
2011,08,01,02,39,12.50
2011,08,01,02,40,12.50
2011,08,01,02,41,12.50
2011,08,01,02,42,12.50
2011,08,01,02,43,12.50
2011,08,01,02,44,12.50
2011,08,01,02,45,12.50
2011,08,01,02,46,12.50
2011,08,01,02,47,12.50
2011,08,01,02,48,12.50
2011,08,01,02,49,12.50
2011,08,01,02,50,12.40
2011,08,01,02,51,12.40
2011,08,01,02,52,12.40
2011,08,01,02,53,12.40
2011,08,01,02,54,12.30
2011,08,01,02,55,12.30
2011,08,01,02,56,12.30
2011,08,01,02,57,12.30
2011,08,01,02,58,12.20
2011,08,01,02,59,12.20
2011,08,01,03,00,12.20
2011,08,01,03,01,12.20
2011,08,01,03,02,12.10
2011,08,01,03,03,12.10
2011,08,01,03,04,12.00
2011,08,01,03,05,12.00
2011,08,01,03,06,12.00
2011,08,01,03,07,11.90
2011,08,01,03,08,11.90
2011,08,01,03,09,11.90
2011,08,01,03,10,11.90
2011,08,01,03,11,11.90
2011,08,01,03,12,11.90
2011,08,01,03,13,11.90
2011,08,01,03,14,11.90
2011,08,01,03,15,11.90
2011,08,01,03,16,11.90
2011,08,01,03,17,11.90
2011,08,01,03,18,11.90
2011,08,01,03,19,11.90
2011,08,01,03,20,11.90
2011,08,01,03,21,11.90
2011,08,01,03,22,11.90
2011,08,01,03,23,11.90
2011,08,01,03,24,11.90
2011,08,01,03,25,11.90
2011,08,01,03,26,11.90
2011,08,01,03,27,11.90
2011,08,01,03,28,11.90
2011,08,01,03,29,11.90
2011,08,01,03,30,11.90
2011,08,01,03,31,11.90
2011,08,01,03,32,11.90
2011,08,01,03,33,11.90
2011,08,01,03,34,11.90
2011,08,01,03,35,11.90
2011,08,01,03,36,11.90
2011,08,01,03,37,11.90
2011,08,01,03,38,11.80
2011,08,01,03,39,11.80
2011,08,01,03,40,11.80
2011,08,01,03,41,11.80
2011,08,01,03,42,11.70
2011,08,01,03,43,11.70
2011,08,01,03,44,11.70
2011,08,01,03,45,11.70
2011,08,01,03,46,11.70
2011,08,01,03,47,11.70
2011,08,01,03,48,11.60
2011,08,01,03,49,11.60
2011,08,01,03,50,11.60
2011,08,01,03,51,11.60
2011,08,01,03,52,11.60
2011,08,01,03,53,11.60
2011,08,01,03,54,11.60
2011,08,01,03,55,11.60
2011,08,01,03,56,11.50
2011,08,01,03,57,11.50
2011,08,01,03,58,11.50
2011,08,01,03,59,11.40
2011,08,01,04,00,11.40
2011,08,01,04,01,11.40
2011,08,01,04,02,11.30
2011,08,01,04,03,11.30
2011,08,01,04,04,11.30
2011,08,01,04,05,11.30
2011,08,01,04,06,11.20
2011,08,01,04,07,11.20
2011,08,01,04,08,11.20
2011,08,01,04,09,11.20
2011,08,01,04,10,11.10
2011,08,01,04,11,11.10
2011,08,01,04,12,11.10
2011,08,01,04,13,11.10
2011,08,01,04,14,11.10
2011,08,01,04,15,11.10
2011,08,01,04,16,11.00
2011,08,01,04,17,11.00
2011,08,01,04,18,11.00
2011,08,01,04,19,11.00
2011,08,01,04,20,10.90
2011,08,01,04,21,10.90
2011,08,01,04,22,10.90
2011,08,01,04,23,10.80
2011,08,01,04,24,10.80
2011,08,01,04,25,10.80
2011,08,01,04,26,10.80
2011,08,01,04,27,10.80
2011,08,01,04,28,10.80
2011,08,01,04,29,10.70
2011,08,01,04,30,10.70
2011,08,01,04,31,10.70
2011,08,01,04,32,10.70
2011,08,01,04,33,10.60
2011,08,01,04,34,10.60
2011,08,01,04,35,10.60
2011,08,01,04,36,10.60
2011,08,01,04,37,10.60
2011,08,01,04,38,10.60
2011,08,01,04,39,10.50
2011,08,01,04,40,10.50
2011,08,01,04,41,10.50
2011,08,01,04,42,10.40
2011,08,01,04,43,10.40
2011,08,01,04,44,10.40
2011,08,01,04,45,10.40
2011,08,01,04,46,10.30
2011,08,01,04,47,10.30
2011,08,01,04,48,10.30
2011,08,01,04,49,10.30
2011,08,01,04,50,10.30
2011,08,01,04,51,10.30
2011,08,01,04,52,10.20
2011,08,01,04,53,10.20
2011,08,01,04,54,10.30
2011,08,01,04,55,10.30
2011,08,01,04,56,10.30
2011,08,01,04,57,10.20
2011,08,01,04,58,10.20
2011,08,01,04,59,10.20
2011,08,01,05,00,10.20
2011,08,01,05,01,10.20
2011,08,01,05,02,10.10
2011,08,01,05,03,10.10
2011,08,01,05,04,10.10
2011,08,01,05,05,10.00
2011,08,01,05,06,10.00
2011,08,01,05,07,10.00
2011,08,01,05,08,9.90
2011,08,01,05,09,9.90
2011,08,01,05,10,9.90
2011,08,01,05,11,9.90
2011,08,01,05,12,9.90
2011,08,01,05,13,9.90
2011,08,01,05,14,9.80
2011,08,01,05,15,9.80
2011,08,01,05,16,9.80
2011,08,01,05,17,9.80
2011,08,01,05,18,9.80
2011,08,01,05,19,9.80
2011,08,01,05,20,9.70
2011,08,01,05,21,9.70
2011,08,01,05,22,9.70
2011,08,01,05,23,9.60
2011,08,01,05,24,9.60
2011,08,01,05,25,9.60
2011,08,01,05,26,9.60
2011,08,01,05,27,9.60
2011,08,01,05,28,9.60
2011,08,01,05,29,9.60
2011,08,01,05,30,9.60
2011,08,01,05,31,9.50
2011,08,01,05,32,9.50
2011,08,01,05,33,9.50
2011,08,01,05,34,9.50
2011,08,01,05,35,9.40
2011,08,01,05,36,9.40
2011,08,01,05,37,9.40
2011,08,01,05,38,9.40
2011,08,01,05,39,9.40
2011,08,01,05,40,9.40
2011,08,01,05,41,9.40
2011,08,01,05,42,9.40
2011,08,01,05,43,9.40
2011,08,01,05,44,9.40
2011,08,01,05,45,9.40
2011,08,01,05,46,9.40
2011,08,01,05,47,9.40
2011,08,01,05,48,9.40
2011,08,01,05,49,9.40
2011,08,01,05,50,9.40
2011,08,01,05,51,9.30
2011,08,01,05,52,9.30
2011,08,01,05,53,9.30
2011,08,01,05,54,9.30
2011,08,01,05,55,9.30
2011,08,01,05,56,9.30
2011,08,01,05,57,9.40
2011,08,01,05,58,9.40
2011,08,01,05,59,9.40
2011,08,01,06,00,9.40
2011,08,01,06,01,9.40
2011,08,01,06,02,9.30
2011,08,01,06,03,9.30
2011,08,01,06,04,9.30
2011,08,01,06,05,9.30
2011,08,01,06,06,9.30
2011,08,01,06,07,9.30
2011,08,01,06,08,9.30
2011,08,01,06,09,9.40
2011,08,01,06,10,9.40
2011,08,01,06,11,9.40
2011,08,01,06,12,9.50
2011,08,01,06,13,9.50
2011,08,01,06,14,9.60
2011,08,01,06,15,9.60
2011,08,01,06,16,9.60
2011,08,01,06,17,9.60
2011,08,01,06,18,9.60
2011,08,01,06,19,9.70
2011,08,01,06,20,9.70
2011,08,01,06,21,9.70
2011,08,01,06,22,9.70
2011,08,01,06,23,9.70
2011,08,01,06,24,9.70
2011,08,01,06,25,9.70
2011,08,01,06,26,9.70
2011,08,01,06,27,9.70
2011,08,01,06,28,9.70
2011,08,01,06,29,9.70
2011,08,01,06,30,9.80
2011,08,01,06,31,9.80
2011,08,01,06,32,9.90
2011,08,01,06,33,9.90
2011,08,01,06,34,9.90
2011,08,01,06,35,9.90
2011,08,01,06,36,10.00
2011,08,01,06,37,10.00
2011,08,01,06,38,10.10
2011,08,01,06,39,10.10
2011,08,01,06,40,10.10
2011,08,01,06,41,10.20
2011,08,01,06,42,10.20
2011,08,01,06,43,10.20
2011,08,01,06,44,10.30
2011,08,01,06,45,10.30
2011,08,01,06,46,10.20
2011,08,01,06,47,10.20
2011,08,01,06,48,10.20
2011,08,01,06,49,10.20
2011,08,01,06,50,10.20
2011,08,01,06,51,10.20
2011,08,01,06,52,10.30
2011,08,01,06,53,10.30
2011,08,01,06,54,10.40
2011,08,01,06,55,10.40
2011,08,01,06,56,10.50
2011,08,01,06,57,10.60
2011,08,01,06,58,10.70
2011,08,01,06,59,10.80
2011,08,01,07,00,10.90
2011,08,01,07,01,11.00
2011,08,01,07,02,11.00
2011,08,01,07,03,11.20
2011,08,01,07,04,11.20
2011,08,01,07,05,11.30
2011,08,01,07,06,11.40
2011,08,01,07,07,11.50
2011,08,01,07,08,11.60
2011,08,01,07,09,11.70
2011,08,01,07,10,11.80
2011,08,01,07,11,11.80
2011,08,01,07,12,11.90
2011,08,01,07,13,11.90
2011,08,01,07,14,12.00
2011,08,01,07,15,12.10
2011,08,01,07,16,12.10
2011,08,01,07,17,12.20
2011,08,01,07,18,12.30
2011,08,01,07,19,12.30
2011,08,01,07,20,12.40
2011,08,01,07,21,12.40
2011,08,01,07,22,12.50
2011,08,01,07,23,12.60
2011,08,01,07,24,12.70
2011,08,01,07,25,12.70
2011,08,01,07,26,12.80
2011,08,01,07,27,12.90
2011,08,01,07,28,12.90
2011,08,01,07,29,13.00
2011,08,01,07,30,13.10
2011,08,01,07,31,13.10
2011,08,01,07,32,13.20
2011,08,01,07,33,13.20
2011,08,01,07,34,13.30
2011,08,01,07,35,13.30
2011,08,01,07,36,13.40
2011,08,01,07,37,13.40
2011,08,01,07,38,13.50
2011,08,01,07,39,13.60
2011,08,01,07,40,13.70
2011,08,01,07,41,13.70
2011,08,01,07,42,13.80
2011,08,01,07,43,13.90
2011,08,01,07,44,13.90
2011,08,01,07,45,14.00
2011,08,01,07,46,14.10
2011,08,01,07,47,14.10
2011,08,01,07,48,14.20
2011,08,01,07,49,14.20
2011,08,01,07,50,14.20
2011,08,01,07,51,14.20
2011,08,01,07,52,14.20
2011,08,01,07,53,14.30
2011,08,01,07,54,14.30
2011,08,01,07,55,14.30
2011,08,01,07,56,14.40
2011,08,01,07,57,14.50
2011,08,01,07,58,14.50
2011,08,01,07,59,14.60
2011,08,01,08,00,14.60
2011,08,01,08,01,14.70
2011,08,01,08,02,14.70
2011,08,01,08,03,14.80
2011,08,01,08,04,14.90
2011,08,01,08,05,15.00
2011,08,01,08,06,15.00
2011,08,01,08,07,15.00
2011,08,01,08,08,15.00
2011,08,01,08,09,15.00
2011,08,01,08,10,15.00
2011,08,01,08,11,15.00
2011,08,01,08,12,15.00
2011,08,01,08,13,15.00
2011,08,01,08,14,15.00
2011,08,01,08,15,15.00
2011,08,01,08,16,15.00
2011,08,01,08,17,15.00
2011,08,01,08,18,15.00
2011,08,01,08,19,15.00
2011,08,01,08,20,15.00
2011,08,01,08,21,15.00
2011,08,01,08,22,15.00
2011,08,01,08,23,15.00
2011,08,01,08,24,15.00
2011,08,01,08,25,15.00
2011,08,01,08,26,15.00
2011,08,01,08,27,15.00
2011,08,01,08,28,15.10
2011,08,01,08,29,15.10
2011,08,01,08,30,15.10
2011,08,01,08,31,15.20
2011,08,01,08,32,15.20
2011,08,01,08,33,15.20
2011,08,01,08,34,15.30
2011,08,01,08,35,15.30
2011,08,01,08,36,15.30
2011,08,01,08,37,15.30
2011,08,01,08,38,15.30
2011,08,01,08,39,15.30
2011,08,01,08,40,15.30
2011,08,01,08,41,15.30
2011,08,01,08,42,15.30
2011,08,01,08,43,15.30
2011,08,01,08,44,15.40
2011,08,01,08,45,15.40
2011,08,01,08,46,15.40
2011,08,01,08,47,15.50
2011,08,01,08,48,15.50
2011,08,01,08,49,15.60
2011,08,01,08,50,15.70
2011,08,01,08,51,15.80
2011,08,01,08,52,15.90
2011,08,01,08,53,15.90
2011,08,01,08,54,16.00
2011,08,01,08,55,16.10
2011,08,01,08,56,16.10
2011,08,01,08,57,16.10
2011,08,01,08,58,16.10
2011,08,01,08,59,16.20
2011,08,01,09,00,16.20
2011,08,01,09,01,16.20
2011,08,01,09,02,16.20
2011,08,01,09,03,16.20
2011,08,01,09,04,16.20
2011,08,01,09,05,16.20
2011,08,01,09,06,16.20
2011,08,01,09,07,16.20
2011,08,01,09,08,16.10
2011,08,01,09,09,16.10
2011,08,01,09,10,16.10
2011,08,01,09,11,16.10
2011,08,01,09,12,16.20
2011,08,01,09,13,16.30
2011,08,01,09,14,16.30
2011,08,01,09,15,16.30
2011,08,01,09,16,16.30
2011,08,01,09,17,16.30
2011,08,01,09,18,16.30
2011,08,01,09,19,16.40
2011,08,01,09,20,16.40
2011,08,01,09,21,16.40
2011,08,01,09,22,16.40
2011,08,01,09,23,16.40
2011,08,01,09,24,16.40
2011,08,01,09,25,16.40
2011,08,01,09,26,16.40
2011,08,01,09,27,16.40
2011,08,01,09,28,16.40
2011,08,01,09,29,16.50
2011,08,01,09,30,16.60
2011,08,01,09,31,16.60
2011,08,01,09,32,16.70
2011,08,01,09,33,16.80
2011,08,01,09,34,17.00
2011,08,01,09,35,17.10
2011,08,01,09,36,17.20
2011,08,01,09,37,17.20
2011,08,01,09,38,17.20
2011,08,01,09,39,17.20
2011,08,01,09,40,17.10
2011,08,01,09,41,17.10
2011,08,01,09,42,17.10
2011,08,01,09,43,17.10
2011,08,01,09,44,17.10
2011,08,01,09,45,17.10
2011,08,01,09,46,17.20
2011,08,01,09,47,17.20
2011,08,01,09,48,17.10
2011,08,01,09,49,17.10
2011,08,01,09,50,17.10
2011,08,01,09,51,17.10
2011,08,01,09,52,17.10
2011,08,01,09,53,17.10
2011,08,01,09,54,17.10
2011,08,01,09,55,17.20
2011,08,01,09,56,17.40
2011,08,01,09,57,17.40
2011,08,01,09,58,17.40
2011,08,01,09,59,17.50
2011,08,01,10,00,17.50
2011,08,01,10,01,17.50
2011,08,01,10,02,17.60
2011,08,01,10,03,17.60
2011,08,01,10,04,17.50
2011,08,01,10,05,17.40
2011,08,01,10,06,17.40
2011,08,01,10,07,17.40
2011,08,01,10,08,17.50
2011,08,01,10,09,17.60
2011,08,01,10,10,17.80
2011,08,01,10,11,17.90
2011,08,01,10,12,17.90
2011,08,01,10,13,18.00
2011,08,01,10,14,18.00
2011,08,01,10,15,18.00
2011,08,01,10,16,18.00
2011,08,01,10,17,18.00
2011,08,01,10,18,18.10
2011,08,01,10,19,18.10
2011,08,01,10,20,18.00
2011,08,01,10,21,18.00
2011,08,01,10,22,17.90
2011,08,01,10,23,17.90
2011,08,01,10,24,18.10
2011,08,01,10,25,18.20
2011,08,01,10,26,18.30
2011,08,01,10,27,18.30
2011,08,01,10,28,18.40
2011,08,01,10,29,18.40
2011,08,01,10,30,18.40
2011,08,01,10,31,18.30
2011,08,01,10,32,18.30
2011,08,01,10,33,18.30
2011,08,01,10,34,18.30
2011,08,01,10,35,18.40
2011,08,01,10,36,18.50
2011,08,01,10,37,18.60
2011,08,01,10,38,18.50
2011,08,01,10,39,18.40
2011,08,01,10,40,18.30
2011,08,01,10,41,18.20
2011,08,01,10,42,18.20
2011,08,01,10,43,18.20
2011,08,01,10,44,18.20
2011,08,01,10,45,18.20
2011,08,01,10,46,18.30
2011,08,01,10,47,18.30
2011,08,01,10,48,18.30
2011,08,01,10,49,18.30
2011,08,01,10,50,18.30
2011,08,01,10,51,18.30
2011,08,01,10,52,18.30
2011,08,01,10,53,18.40
2011,08,01,10,54,18.50
2011,08,01,10,55,18.50
2011,08,01,10,56,18.50
2011,08,01,10,57,18.60
2011,08,01,10,58,18.60
2011,08,01,10,59,18.70
2011,08,01,11,00,18.70
2011,08,01,11,01,18.70
2011,08,01,11,02,18.70
2011,08,01,11,03,18.60
2011,08,01,11,04,18.60
2011,08,01,11,05,18.50
2011,08,01,11,06,18.40
2011,08,01,11,07,18.50
2011,08,01,11,08,18.60
2011,08,01,11,09,18.70
2011,08,01,11,10,18.70
2011,08,01,11,11,18.80
2011,08,01,11,12,19.00
2011,08,01,11,13,19.20
2011,08,01,11,14,19.50
2011,08,01,11,15,19.80
2011,08,01,11,16,20.00
2011,08,01,11,17,20.00
2011,08,01,11,18,19.90
2011,08,01,11,19,19.60
2011,08,01,11,20,19.40
2011,08,01,11,21,19.20
2011,08,01,11,22,19.10
2011,08,01,11,23,19.20
2011,08,01,11,24,19.10
2011,08,01,11,25,19.10
2011,08,01,11,26,19.00
2011,08,01,11,27,18.90
2011,08,01,11,28,18.90
2011,08,01,11,29,18.80
2011,08,01,11,30,18.80
2011,08,01,11,31,18.90
2011,08,01,11,32,18.80
2011,08,01,11,33,18.70
2011,08,01,11,34,18.70
2011,08,01,11,35,18.70
2011,08,01,11,36,18.70
2011,08,01,11,37,18.60
2011,08,01,11,38,18.60
2011,08,01,11,39,18.50
2011,08,01,11,40,18.40
2011,08,01,11,41,18.40
2011,08,01,11,42,18.40
2011,08,01,11,43,18.50
2011,08,01,11,44,18.50
2011,08,01,11,45,18.50
2011,08,01,11,46,18.40
2011,08,01,11,47,18.60
2011,08,01,11,48,18.70
2011,08,01,11,49,18.90
2011,08,01,11,50,19.10
2011,08,01,11,51,19.20
2011,08,01,11,52,19.20
2011,08,01,11,53,19.30
2011,08,01,11,54,19.20
2011,08,01,11,55,19.20
2011,08,01,11,56,19.20
2011,08,01,11,57,19.20
2011,08,01,11,58,19.20
2011,08,01,11,59,19.10
2011,08,01,12,00,19.00
2011,08,01,12,01,19.10
2011,08,01,12,02,19.20
2011,08,01,12,03,19.30
2011,08,01,12,04,19.30
2011,08,01,12,05,19.40
2011,08,01,12,06,19.30
2011,08,01,12,07,19.30
2011,08,01,12,08,19.30
2011,08,01,12,09,19.30
2011,08,01,12,10,19.50
2011,08,01,12,11,19.60
2011,08,01,12,12,19.70
2011,08,01,12,13,19.80
2011,08,01,12,14,19.90
2011,08,01,12,15,19.90
2011,08,01,12,16,20.00
2011,08,01,12,17,20.00
2011,08,01,12,18,19.90
2011,08,01,12,19,19.70
2011,08,01,12,20,19.60
2011,08,01,12,21,19.40
2011,08,01,12,22,19.40
2011,08,01,12,23,19.30
2011,08,01,12,24,19.20
2011,08,01,12,25,19.00
2011,08,01,12,26,18.90
2011,08,01,12,27,19.00
2011,08,01,12,28,19.10
2011,08,01,12,29,19.30
2011,08,01,12,30,19.40
2011,08,01,12,31,19.50
2011,08,01,12,32,19.60
2011,08,01,12,33,19.80
2011,08,01,12,34,20.00
2011,08,01,12,35,20.10
2011,08,01,12,36,20.20
2011,08,01,12,37,20.20
2011,08,01,12,38,20.30
2011,08,01,12,39,20.20
2011,08,01,12,40,20.20
2011,08,01,12,41,20.20
2011,08,01,12,42,20.20
2011,08,01,12,43,20.20
2011,08,01,12,44,20.10
2011,08,01,12,45,19.90
2011,08,01,12,46,19.80
2011,08,01,12,47,19.70
2011,08,01,12,48,19.60
2011,08,01,12,49,19.60
2011,08,01,12,50,19.70
2011,08,01,12,51,19.80
2011,08,01,12,52,19.80
2011,08,01,12,53,19.80
2011,08,01,12,54,19.70
2011,08,01,12,55,19.70
2011,08,01,12,56,19.70
2011,08,01,12,57,19.80
2011,08,01,12,58,20.00
2011,08,01,12,59,20.20
2011,08,01,13,00,20.30
2011,08,01,13,01,20.40
2011,08,01,13,02,20.40
2011,08,01,13,03,20.40
2011,08,01,13,04,20.40
2011,08,01,13,05,20.40
2011,08,01,13,06,20.40
2011,08,01,13,07,20.30
2011,08,01,13,08,20.30
2011,08,01,13,09,20.30
2011,08,01,13,10,20.30
2011,08,01,13,11,20.20
2011,08,01,13,12,20.30
2011,08,01,13,13,20.40
2011,08,01,13,14,20.40
2011,08,01,13,15,20.50
2011,08,01,13,16,20.60
2011,08,01,13,17,20.70
2011,08,01,13,18,20.80
2011,08,01,13,19,20.80
2011,08,01,13,20,20.90
2011,08,01,13,21,21.10
2011,08,01,13,22,21.20
2011,08,01,13,23,21.40
2011,08,01,13,24,21.40
2011,08,01,13,25,21.40
2011,08,01,13,26,21.40
2011,08,01,13,27,21.30
2011,08,01,13,28,21.30
2011,08,01,13,29,21.40
2011,08,01,13,30,21.60
2011,08,01,13,31,21.70
2011,08,01,13,32,21.70
2011,08,01,13,33,21.70
2011,08,01,13,34,21.60
2011,08,01,13,35,21.60
2011,08,01,13,36,21.50
2011,08,01,13,37,21.50
2011,08,01,13,38,21.40
2011,08,01,13,39,21.40
2011,08,01,13,40,21.30
2011,08,01,13,41,21.20
2011,08,01,13,42,21.20
2011,08,01,13,43,21.20
2011,08,01,13,44,21.20
2011,08,01,13,45,21.20
2011,08,01,13,46,21.20
2011,08,01,13,47,21.20
2011,08,01,13,48,21.20
2011,08,01,13,49,21.30
2011,08,01,13,50,21.30
2011,08,01,13,51,21.40
2011,08,01,13,52,21.50
2011,08,01,13,53,21.70
2011,08,01,13,54,21.80
2011,08,01,13,55,21.90
2011,08,01,13,56,22.00
2011,08,01,13,57,22.10
2011,08,01,13,58,22.10
2011,08,01,13,59,22.10
2011,08,01,14,00,22.10
2011,08,01,14,01,22.00
2011,08,01,14,02,22.10
2011,08,01,14,03,22.10
2011,08,01,14,04,22.20
2011,08,01,14,05,22.20
2011,08,01,14,06,22.30
2011,08,01,14,07,22.40
2011,08,01,14,08,22.50
2011,08,01,14,09,22.60
2011,08,01,14,10,22.60
2011,08,01,14,11,22.80
2011,08,01,14,12,22.80
2011,08,01,14,13,22.90
2011,08,01,14,14,22.80
2011,08,01,14,15,22.80
2011,08,01,14,16,22.70
2011,08,01,14,17,22.60
2011,08,01,14,18,22.50
2011,08,01,14,19,22.50
2011,08,01,14,20,22.30
2011,08,01,14,21,22.20
2011,08,01,14,22,22.20
2011,08,01,14,23,22.10
2011,08,01,14,24,22.20
2011,08,01,14,25,22.40
2011,08,01,14,26,22.50
2011,08,01,14,27,22.40
2011,08,01,14,28,22.30
2011,08,01,14,29,22.30
2011,08,01,14,30,22.30
2011,08,01,14,31,22.40
2011,08,01,14,32,22.40
2011,08,01,14,33,22.40
2011,08,01,14,34,22.30
2011,08,01,14,35,22.30
2011,08,01,14,36,22.30
2011,08,01,14,37,22.30
2011,08,01,14,38,22.30
2011,08,01,14,39,22.30
2011,08,01,14,40,22.30
2011,08,01,14,41,22.30
2011,08,01,14,42,22.40
2011,08,01,14,43,22.40
2011,08,01,14,44,22.50
2011,08,01,14,45,22.60
2011,08,01,14,46,22.70
2011,08,01,14,47,22.90
2011,08,01,14,48,23.00
2011,08,01,14,49,23.00
2011,08,01,14,50,23.20
2011,08,01,14,51,23.20
2011,08,01,14,52,23.10
2011,08,01,14,53,23.10
2011,08,01,14,54,23.00
2011,08,01,14,55,23.10
2011,08,01,14,56,23.10
2011,08,01,14,57,23.10
2011,08,01,14,58,23.00
2011,08,01,14,59,22.80
2011,08,01,15,00,22.70
2011,08,01,15,01,22.70
2011,08,01,15,02,22.60
2011,08,01,15,03,22.50
2011,08,01,15,04,22.50
2011,08,01,15,05,22.50
2011,08,01,15,06,22.60
2011,08,01,15,07,22.60
2011,08,01,15,08,22.60
2011,08,01,15,09,22.60
2011,08,01,15,10,22.60
2011,08,01,15,11,22.60
2011,08,01,15,12,22.70
2011,08,01,15,13,22.60
2011,08,01,15,14,22.70
2011,08,01,15,15,22.70
2011,08,01,15,16,22.80
2011,08,01,15,17,22.80
2011,08,01,15,18,22.80
2011,08,01,15,19,22.80
2011,08,01,15,20,22.80
2011,08,01,15,21,22.80
2011,08,01,15,22,22.70
2011,08,01,15,23,22.60
2011,08,01,15,24,22.50
2011,08,01,15,25,22.50
2011,08,01,15,26,22.50
2011,08,01,15,27,22.50
2011,08,01,15,28,22.50
2011,08,01,15,29,22.50
2011,08,01,15,30,22.60
2011,08,01,15,31,22.60
2011,08,01,15,32,22.60
2011,08,01,15,33,22.70
2011,08,01,15,34,22.80
2011,08,01,15,35,23.00
2011,08,01,15,36,23.20
2011,08,01,15,37,23.30
2011,08,01,15,38,23.40
2011,08,01,15,39,23.30
2011,08,01,15,40,23.20
2011,08,01,15,41,23.10
2011,08,01,15,42,23.00
2011,08,01,15,43,22.90
2011,08,01,15,44,22.90
2011,08,01,15,45,22.90
2011,08,01,15,46,23.00
2011,08,01,15,47,23.00
2011,08,01,15,48,23.00
2011,08,01,15,49,23.00
2011,08,01,15,50,22.90
2011,08,01,15,51,22.90
2011,08,01,15,52,22.90
2011,08,01,15,53,22.90
2011,08,01,15,54,22.90
2011,08,01,15,55,22.90
2011,08,01,15,56,22.80
2011,08,01,15,57,22.70
2011,08,01,15,58,22.60
2011,08,01,15,59,22.60
2011,08,01,16,00,22.60
2011,08,01,16,01,22.70
2011,08,01,16,02,22.80
2011,08,01,16,03,22.90
2011,08,01,16,04,22.90
2011,08,01,16,05,23.00
2011,08,01,16,06,23.10
2011,08,01,16,07,23.10
2011,08,01,16,08,23.10
2011,08,01,16,09,23.10
2011,08,01,16,10,23.20
2011,08,01,16,11,23.20
2011,08,01,16,12,23.20
2011,08,01,16,13,23.30
2011,08,01,16,14,23.30
2011,08,01,16,15,23.30
2011,08,01,16,16,23.30
2011,08,01,16,17,23.20
2011,08,01,16,18,23.00
2011,08,01,16,19,22.90
2011,08,01,16,20,23.00
2011,08,01,16,21,23.10
2011,08,01,16,22,23.10
2011,08,01,16,23,23.00
2011,08,01,16,24,23.00
2011,08,01,16,25,22.90
2011,08,01,16,26,22.80
2011,08,01,16,27,22.80
2011,08,01,16,28,22.70
2011,08,01,16,29,22.70
2011,08,01,16,30,22.70
2011,08,01,16,31,22.70
2011,08,01,16,32,22.70
2011,08,01,16,33,22.70
2011,08,01,16,34,22.70
2011,08,01,16,35,22.70
2011,08,01,16,36,22.70
2011,08,01,16,37,22.80
2011,08,01,16,38,22.90
2011,08,01,16,39,22.90
2011,08,01,16,40,22.90
2011,08,01,16,41,22.90
2011,08,01,16,42,22.90
2011,08,01,16,43,22.90
2011,08,01,16,44,22.90
2011,08,01,16,45,22.90
2011,08,01,16,46,22.90
2011,08,01,16,47,23.00
2011,08,01,16,48,23.00
2011,08,01,16,49,23.00
2011,08,01,16,50,22.90
2011,08,01,16,51,22.80
2011,08,01,16,52,22.80
2011,08,01,16,53,22.80
2011,08,01,16,54,22.80
2011,08,01,16,55,22.90
2011,08,01,16,56,23.00
2011,08,01,16,57,23.10
2011,08,01,16,58,23.20
2011,08,01,16,59,23.20
2011,08,01,17,00,23.30
2011,08,01,17,01,23.30
2011,08,01,17,02,23.30
2011,08,01,17,03,23.30
2011,08,01,17,04,23.30
2011,08,01,17,05,23.30
2011,08,01,17,06,23.30
2011,08,01,17,07,23.30
2011,08,01,17,08,23.30
2011,08,01,17,09,23.20
2011,08,01,17,10,23.10
2011,08,01,17,11,23.00
2011,08,01,17,12,23.00
2011,08,01,17,13,22.90
2011,08,01,17,14,22.80
2011,08,01,17,15,22.80
2011,08,01,17,16,22.80
2011,08,01,17,17,22.80
2011,08,01,17,18,22.80
2011,08,01,17,19,22.70
2011,08,01,17,20,22.70
2011,08,01,17,21,22.70
2011,08,01,17,22,22.60
2011,08,01,17,23,22.60